User: anonymous   Login
Location: Peebles
(55.6412°N, 3.1714°W)
Time: 23:28:56
(UTC+00:00)
Language:

MOZHAYETS 4 - Orbit

View from above orbital plane
View from above orbital plane
View from above satellite
View from above satellite

Ground track
Ground track

The orbit data is extracted from the following two-line orbital elements,

1 27939U 03042A   22336.33722902  .00000754  00000-0  14123-3 0  9993
2 27939  98.2141 117.2861 0013385  43.0859 317.1410 14.67640220 25660
Epoch (UTC): 02 December 2022 08:05:36
Eccentricity: 0.0013385
inclination: 98.2141°
perigee height: 659 km
apogee height: 678 km
right ascension of ascending node: 117.2861°
argument of perigee: 43.0859°
revolutions per day: 14.67640220
mean anomaly at epoch: 317.1410°
orbit number at epoch: 2566

The dashed part of the orbit path shows where the satellite is in the earth's shadow,  

DLR